date,time,DOY,Ta_1_1_1,RH_1_1_1,LWin_1_1_1,LWout_1_1_1,SWin_1_1_1,SWout_1_1_1,PPFD_1_1_1,SWC_1_1_1,Ts_1_1_1
[yyyy-mm-dd],[HH:MM],[ddd.ddd],[K],[%],[W+1m-2],[W+1m-2],[W+1m-2],[W+1m-2],[µmol+1m-2s-1],[m+3m-3],[K]
2013-10-10,00:30,283.020,285.43533333333340,70.790666666666667,-9999.0,-9999.0,0.46166666666666673,-4.5479999999999992,-2.63333333333333405E-002,0.32000000000000012,284.68166666666667
2013-10-10,01:00,283.041,285.04000000000008,72.097999999999999,-9999.0,-9999.0,0.27200000000000002,-4.7810000000000006,-3.00000000000000128E-002,0.32000000000000012,284.58633333333347
2013-10-10,01:30,283.062,284.52400000000006,74.039333333333360,-9999.0,-9999.0,0.18300000000000000,-4.9010000000000007,-3.83333333333333443E-002,0.32000000000000012,284.48499999999996
2013-10-10,02:00,283.083,283.96400000000006,76.347333333333339,-9999.0,-9999.0,4.66666666666666688E-002,-4.8120000000000003,-3.33333333333333467E-002,0.32000000000000012,284.37399999999997
2013-10-10,02:30,283.104,283.41399999999999,80.022999999999982,-9999.0,-9999.0,0.10533333333333332,-4.5256666666666678,-3.73333333333333503E-002,0.32000000000000012,284.24866666666657
2013-10-10,03:00,283.124,283.30833333333334,79.418333333333294,-9999.0,-9999.0,0.34199999999999997,-4.3033333333333328,-3.53333333333333416E-002,0.32000000000000012,284.12200000000001
2013-10-10,03:30,283.145,283.11233333333337,79.278666666666666,-9999.0,-9999.0,0.10400000000000000,-4.4763333333333337,-3.90000000000000208E-002,0.32000000000000012,284.00699999999995
2013-10-10,04:00,283.166,282.43033333333335,82.827333333333343,-9999.0,-9999.0,3.43333333333333338E-002,-4.5746666666666664,-4.26666666666666930E-002,0.32000000000000012,283.89733333333328
2013-10-10,04:30,283.187,282.17133333333339,83.311999999999998,-9999.0,-9999.0,0.12666666666666665,-4.3883333333333336,-3.53333333333333416E-002,0.32000000000000012,283.79833333333335
2013-10-10,05:00,283.208,281.78899999999999,85.337666666666692,-9999.0,-9999.0,0.11266666666666669,-4.2626666666666670,-4.33333333333333556E-002,0.32000000000000012,283.69066666666657
2013-10-10,05:30,283.229,281.90966666666674,83.789999999999992,-9999.0,-9999.0,0.24566666666666670,-3.8570000000000007,-1.46666666666666681E-002,0.32000000000000012,283.58700000000005
2013-10-10,06:00,283.249,281.96100000000007,82.575666666666663,-9999.0,-9999.0,0.29166666666666669,-2.5363333333333324,0.93266666666666664,0.32000000000000012,283.48733333333337
2013-10-10,06:30,283.270,281.49933333333337,84.282666666666657,-9999.0,-9999.0,4.9213333333333340,13.666333333333334,26.028333333333332,0.32000000000000012,283.39733333333339
2013-10-10,07:00,283.291,281.92300000000000,80.838999999999999,-9999.0,-9999.0,14.049666666666663,66.963666666666668,120.96133333333331,0.32000000000000012,283.32533333333339
2013-10-10,07:30,283.312,282.94433333333330,75.358333333333348,-9999.0,-9999.0,29.927333333333333,164.35133333333334,290.05599999999998,0.32000000000000012,283.30066666666681
2013-10-10,08:00,283.333,284.19466666666665,69.647999999999996,-9999.0,-9999.0,36.658333333333339,227.42866666666666,421.99400000000009,0.31299999999999983,283.35466666666673
2013-10-10,08:30,283.354,285.33466666666669,65.868999999999986,-9999.0,-9999.0,46.587666666666664,307.48133333333334,586.27366666666671,0.31199999999999989,283.48999999999995
2013-10-10,09:00,283.374,286.15066666666667,63.323999999999998,-9999.0,-9999.0,52.256666666666689,362.13600000000008,701.84966666666674,0.32000000000000012,283.76500000000004
2013-10-10,09:30,283.395,287.24400000000009,61.068666666666665,-9.9800000000000004,-9999.0,49.154666666666664,354.17433333333332,697.95366666666689,0.31133333333333330,284.11433333333349
2013-10-10,10:00,283.416,287.93333333333339,59.004666666666672,-8.5804166666666681,-9999.0,62.840333333333326,448.04233333333343,886.36199999999974,0.31099999999999989,284.43166666666667
2013-10-10,10:30,283.437,289.48100000000005,51.719666666666669,-9.2088888888888896,-9999.0,63.902333333333331,467.91000000000003,931.64633333333347,0.31066666666666654,284.79633333333334
2013-10-10,11:00,283.458,290.21066666666678,48.415333333333336,-8.0366666666666671,-9999.0,79.062666666666658,581.35399999999993,1156.9053333333334,0.31133333333333330,285.19333333333338
2013-10-10,11:30,283.479,291.04433333333338,44.304333333333332,-7.7860714285714296,-9999.0,68.586333333333343,509.67033333333325,1020.8089999999999,0.30999999999999989,285.62433333333331
2013-10-10,12:00,283.499,291.42366666666669,44.393000000000001,-8.2527586206896562,-9999.0,62.312666666666665,466.48066666666671,944.33899999999994,0.30999999999999989,285.91100000000000
2013-10-10,12:30,283.520,291.47333333333336,43.500333333333330,-7.3496666666666677,-9999.0,55.150666666666673,410.42166666666674,829.60366666666675,0.30999999999999989,286.17366666666669
2013-10-10,13:00,283.541,292.09233333333333,39.415000000000006,-7.2496666666666671,-9999.0,61.922666666666665,462.48733333333331,934.90866666666648,0.30999999999999989,286.40699999999998
2013-10-10,13:30,283.562,292.10700000000008,38.838000000000001,-7.6396666666666659,-9999.0,50.936000000000000,383.77499999999998,777.90666666666652,0.30999999999999989,286.68599999999998
2013-10-10,14:00,283.583,292.28433333333328,39.051000000000009,-7.9669999999999987,-9999.0,45.513999999999996,341.03866666666664,695.49133333333339,0.30999999999999989,286.83133333333336
2013-10-10,14:30,283.604,292.46033333333344,37.201333333333331,-8.3316666666666670,-9999.0,46.721000000000004,344.02366666666671,700.34633333333329,0.30999999999999989,286.92266666666666
2013-10-10,15:00,283.624,292.65133333333335,37.673000000000002,-8.8679166666666642,-9999.0,46.759000000000007,339.70666666666671,694.85133333333340,0.30999999999999983,287.03466666666674
2013-10-10,15:30,283.645,292.50766666666669,39.261999999999993,-9.4507142857142856,-9999.0,40.402999999999999,277.52300000000002,570.14799999999991,0.30999999999999994,287.06800000000004
2013-10-10,16:00,283.666,292.43333333333339,39.529666666666657,-9999.0,-9999.0,37.799666666666674,237.95566666666670,482.98433333333327,0.30999999999999989,287.03166666666669
2013-10-10,16:30,283.687,291.91766666666666,41.754999999999995,-9999.0,-9999.0,22.688666666666677,125.41599999999998,261.39999999999992,0.30999999999999989,286.91933333333327
2013-10-10,17:00,283.708,291.25133333333338,43.403333333333329,-9999.0,-9999.0,12.167999999999999,60.465666666666657,129.15466666666666,0.30999999999999989,286.77366666666677
2013-10-10,17:30,283.729,290.28166666666664,45.802999999999997,-9999.0,-9999.0,1.5156666666666669,3.9246666666666674,22.335333333333324,0.30999999999999989,286.57366666666672
2013-10-10,18:00,283.749,289.48766666666671,48.044666666666664,-9999.0,-9999.0,0.19466666666666668,-5.3816666666666642,0.55199999999999982,0.30999999999999989,286.31366666666679
2013-10-10,18:30,283.770,288.94099999999997,49.219333333333338,-9999.0,-9999.0,0.32633333333333325,-5.1889999999999992,-2.26666666666666683E-002,0.30999999999999989,286.04233333333337
2013-10-10,19:00,283.791,288.52099999999996,50.969666666666676,-9999.0,-9999.0,0.24766666666666673,-5.2240000000000011,-2.60000000000000092E-002,0.30999999999999989,285.81133333333344
2013-10-10,19:30,283.812,287.95133333333337,53.717666666666673,-9999.0,-9999.0,0.22733333333333330,-5.1549999999999994,-2.76666666666666762E-002,0.30999999999999989,285.61466666666666
2013-10-10,20:00,283.833,287.25466666666665,57.224666666666664,-9999.0,-9999.0,0.13400000000000001,-5.0763333333333334,-3.20000000000000145E-002,0.30999999999999989,285.43400000000003
2013-10-10,20:30,283.854,286.86033333333330,60.348666666666666,-9999.0,-9999.0,0.33166666666666667,-4.6853333333333333,-1.23333333333333333E-002,0.30999999999999989,285.28100000000001
2013-10-10,21:00,283.874,286.62233333333342,62.168666666666681,-9999.0,-9999.0,0.38566666666666671,-4.5736666666666661,-2.50000000000000118E-002,0.30999999999999989,285.14133333333342
2013-10-10,21:30,283.895,286.49466666666672,62.406333333333329,-9999.0,-9999.0,0.29766666666666669,-4.5569999999999986,-2.06666666666666735E-002,0.30999999999999989,285.02033333333327
2013-10-10,22:00,283.916,285.88333333333338,66.746000000000009,-9999.0,-9999.0,0.16100000000000000,-4.5986666666666673,-2.46666666666666735E-002,0.30999999999999989,284.91966666666667
2013-10-10,22:30,283.937,285.37100000000004,71.286666666666690,-9.8177777777777777,-9999.0,0.27900000000000003,-4.4489999999999990,-2.50000000000000083E-002,0.30999999999999989,284.82600000000002
2013-10-10,23:00,283.958,284.97333333333330,74.590333333333319,-9.8564285714285695,-9999.0,0.27833333333333332,-4.3783333333333330,-4.99999999999999924E-003,0.30999999999999989,284.74066666666658
2013-10-10,23:30,283.979,284.60033333333342,77.344666666666654,-9.7699999999999978,-9999.0,0.28566666666666662,-4.3586666666666662,-4.00000000000000008E-003,0.30999999999999989,284.65866666666665
2013-10-11,00:00,284.000,284.36133333333328,79.103999999999999,-9.4083333333333350,-9999.0,0.36199999999999993,-4.1856666666666671,-1.03333333333333333E-002,0.30999999999999989,284.58100000000007
